This is the latest recevied weather packets stored in our database for station/object K9VSK-9. If no packets are shown the sender has not sent any weather packets the latest 10 day(s).
| Time | Temp. | Humidity | Pressure | Rain* | Wind** | Luminosity | Snow |
|---|---|---|---|---|---|---|---|
| 1788005231 | 15.56° C | 95% | 1020.8 hPa | 0 mm | - | - | - |
| 1788004930 | 15.56° C | 95% | 1020.7 hPa | 0 mm | - | - | - |
| 1788004630 | 15.56° C | 95% | 1020.6 hPa | 0 mm | - | - | - |
| 1788004329 | 15.56° C | 95% | 1020.7 hPa | 0 mm | - | - | - |
| 1788004029 | 15.56° C | 95% | 1020.6 hPa | 0 mm | - | - | - |
| 1788003728 | 15.56° C | 94% | 1020.6 hPa | 0 mm | - | - | - |
| 1788003429 | 15° C | 94% | 1020.6 hPa | 0 mm | - | - | - |
| 1788003252 | 16.11° C | 94% | 1020.6 hPa | 0 mm | - | - | - |
| 1788003128 | 15° C | 93% | 1020.6 hPa | 0 mm | - | - | - |
| 1788002827 | 16.11° C | 94% | 1020.6 hPa | 0 mm | - | - | - |
| 1788002527 | 16.11° C | 94% | 1020.6 hPa | 0 mm | - | - | - |
| 1788002227 | 16.11° C | 94% | 1020.6 hPa | 0 mm | - | - | - |
| 1788001927 | 16.11° C | 94% | 1020.8 hPa | 0 mm | - | - | - |
| 1788001626 | 16.11° C | 95% | 1020.8 hPa | 0 mm | - | - | - |
| 1788001326 | 16.11° C | 95% | 1020.5 hPa | 0 mm | - | - | - |
| 1788001026 | 16.11° C | 94% | 1020.4 hPa | 0 mm | - | - | - |
| 1788000726 | 16.11° C | 94% | 1020.2 hPa | 0 mm | - | - | - |
| 1788000425 | 16.11° C | 94% | 1019.9 hPa | 0 mm | - | - | - |
| 1788000125 | 16.11° C | 94% | 1019.9 hPa | 0 mm | - | - | - |
| 1787999825 | 15.56° C | 94% | 1020 hPa | 0 mm | - | - | - |
| 1787999524 | 16.11° C | 94% | 1020 hPa | 0 mm | - | - | - |
| 1787999224 | 16.11° C | 94% | 1020 hPa | 0 mm | - | - | - |
| 1787998924 | 16.11° C | 94% | 1020.1 hPa | 0 mm | - | - | - |
| 1787998623 | 16.11° C | 94% | 1020.3 hPa | 0 mm | - | - | - |
| 1787998323 | 16.11° C | 94% | 1020.3 hPa | 0 mm | - | - | - |
* Rain latest hour (hover to see other rain measurements)
** Current wind speed in m/s (hover to see current wind gust speed)